Regional Weather Roundup
Issued by NWS

Home | Current Version | Previous Version | Text Only | Print | Product List | Glossary On
Versions: 1 2 3 4 5 6 7 8 9 10 11 12 13 14 15 16 17 18 19 20 21 22 23 24 25 26 27 28 29 30 31 32 33 34 35 36 37 38 39 40 41 42 43 44 45 46 47 48 49 50
000
ASUS43 KDTX 042001
RWRMI
MICHIGAN HOURLY REGIONAL WEATHER ROUNDUP
NATIONAL WEATHER SERVICE DETROIT/PONTIAC MI
400 PM EDT TUE AUG 04 2015

NOTE: "FAIR" INDICATES FEW OR NO CLOUDS BELOW 12,000 FEET WITH NO
SIGNIFICANT WEATHER AND/OR OBSTRUCTION TO VISIBILITY.

MIZ047>049-052>055-059>063-066>070-074>076-081>083-042100-
SOUTHEAST LOWER MICHIGAN

CITY           SKY/WX    TMP DP  RH WIND       PRES   REMARKS
ADRIAN         SUNNY     80  56  43 W9        29.95S
ALMA           MOSUNNY   78  54  42 W14G20    29.91F
ANN ARBOR      MOSUNNY   78  55  44 W10       29.93S
BAD AXE        MOSUNNY   70  60  70 NW12      29.91R
CARO           LGT RAIN  70  62  77 NW8       29.91R
DETROIT CITY   MOSUNNY   81  53  37 NW13G20   29.91F
DETROIT        PTSUNNY   82  55  39 SW10      29.92S
FLINT          MOSUNNY   79  57  46 W9        29.93R
GROSSE ILE     MOSUNNY   81  54  39 W9G18     29.91S
HILLSDALE      MOSUNNY   79  55  44 W9G16     29.97S
HOWELL         PTSUNNY   77  52  42 W14G20    29.94S

CITY           SKY/WX    TMP DP  RH WIND       PRES   REMARKS
JACKSON        MOSUNNY   76  54  46 W12       29.94F
LAMBERTVILLE   MOSUNNY   80  55  41 W7        29.94S
LANSING        MOSUNNY   80  54  40 W18G26    29.94S
LAPEER         CLOUDY    77  56  49 NW10G16   29.92S
MASON          MOSUNNY   77  53  43 W12G21    29.94S
MONROE         MOSUNNY   80  56  42 W9G17     29.92S
MT. CLEMENS    MOSUNNY   78  56  45 W13G22    29.89S
PONTIAC        PTSUNNY   78  54  43 W15       29.92S
PORT HURON     CLOUDY    75  57  53 W9G17     29.91R
TRI CITIES     MOSUNNY   78  58  49 W15G23    29.91S
MIDLAND        PTSUNNY   74  55  50 W10G17    29.90R
TROY           PTSUNNY   79  54  42 W6        29.93F
SAGINAW HB     CLOUDY    77  59  53 W13       29.90S
$$
MIZ043>046-050>051-056>058-064>065-071>073-077>080-042100-
SOUTHWEST LOWER MICHIGAN

CITY           SKY/WX    TMP DP  RH WIND       PRES   REMARKS
BATTLE CREEK     N/A    N/A N/A N/A MISG      29.97R
BENTON HARBOR  MOSUNNY   77  58  51 W9        29.97F
BIG RAPIDS     MOSUNNY   73  49  42 W14G21    29.93S
COLDWATER      MOSUNNY   78  52  40 W12G20    29.96S
FREMONT        FAIR      74  51  43 W16       29.95S
HOLLAND        SUNNY     76  60  57 W14G20    29.97S
GRAND RAPIDS   PTSUNNY   79  54  41 W18G28    29.95S
IONIA          PTSUNNY   79  52  39 W12G20    29.93S
KALAMAZOO      MOSUNNY   80  52  37 W18       29.97R
LUDINGTON      MOSUNNY   73  60  63 NW12      29.96S
MARSHALL       PTSUNNY   80  53  39 W14       29.95S
MOUNT PLEASANT CLOUDY    75  54  47 W6        29.91S
MUSKEGON       MOSUNNY   77  57  50 NW12      29.96S
SOUTH HAVEN    SUNNY     77  55  45 W9        29.97S
$$
MIZ016>042-042100-
NORTHERN LOWER MICHIGAN

CITY           SKY/WX    TMP DP  RH WIND       PRES   REMARKS
ALPENA         MOSUNNY   73  52  47 NW12G17   29.89R
BEAVER ISLAND  CLOUDY    67  53  60 NW6       29.94R
BELLAIRE       MOSUNNY   71  51  49 W5        29.93S
CADILLAC       PTSUNNY   75  54  47 W15G22    29.93S
CHARLEVOIX     MOSUNNY   67  54  62 NW9       29.97S
FRANKFORT      SUNNY     71  57  61 W8        29.95R
GAYLORD        MOSUNNY   68  52  56 NW8G21    29.93R
GRAYLING       MOSUNNY   71  53  53 NW10G17   29.93S
HARBOR SPRINGS CLOUDY    69  52  54 NW7       29.93R
HOUGHTON LAKE  PTSUNNY   72  55  55 W10       29.92S
MANISTEE       MOSUNNY   70  55  60 W10       29.96S
OSCODA         LGT RAIN  66  60  80 NW3       29.89S
PELLSTON       MOSUNNY   71  52  50 NW14      29.93R
ROGERS CITY    MOSUNNY   68  55  62 NW15G23   29.91R
TRAVERSE CITY  PTSUNNY   70  54  56 N9        29.92R
$$
MIZ007>008-015-042100-
EASTERN UPPER MICHIGAN

CITY           SKY/WX    TMP DP  RH WIND       PRES   REMARKS
KINROSS        PTSUNNY   66  48  52 NW17      29.90F
MACKINAC ISLAN PTSUNNY   67  47  48 NW9       29.90S
NEWBERRY       CLOUDY    67  48  50 N10G16    29.93
S. S. MARIE    SUNNY     66  49  54 NW14G21   29.91R
MUNISING         N/A     66  55  67 NE13      29.96R
$$
MIZ004>006-011>014-085-042100-
CENTRAL UPPER MICHIGAN

CITY           SKY/WX    TMP DP  RH WIND       PRES   REMARKS
MANISTIQUE     CLOUDY    68  51  54 NW6       29.93S
ESCANABA       SUNNY     64  57  77 E6        29.94S
MENOMINEE      CLOUDY    68  55  64 SE9       29.93R
SAWYER-GWINN   PTSUNNY   61  48  63 NE9G16    29.96R
$$
MIZ001>003-009>011-084-042100-
WESTERN UPPER MICHIGAN

CITY           SKY/WX    TMP DP  RH WIND       PRES   REMARKS
IRON MOUNTAIN  PTSUNNY   70  50  49 NW14G21   29.94R
HOUGHTON       CLOUDY    63  49  60 NW15      29.98R
COPPER HARBOR    N/A     62  54  74 N12       29.97R
IRONWOOD       PTSUNNY   66  54  63 N10       29.97R
$$

ABBREVIATIONS USED IN REMARKS
   TC - TEMPERATURE IN CELSIUS
  WCI - WIND CHILL INDEX
   HX - HEAT INDEX
  VSB - VISIBILITY



USA.gov is the U.S. government's official web portal to all federal, state and local government web resources and services.